| time (UTC) | temp C | wind direction | speed KPH | gust KPH | rain 1hr cm | rain 24hr cm | rain mn cm | humidity % | barometer mb |
| 20260506010056 | -1 | 116 | 1.6 | 8.0 | 0.00 | 0.48 | 0.30 | 93 | 1012.9 |
| 20260506004548 | -1 | 107 | 3.2 | 14.5 | 0.00 | 0.51 | 0.30 | 93 | 1012.9 |
| 20260506003049 | -1 | 141 | 4.8 | 12.9 | 0.00 | 0.51 | 0.30 | 93 | 1012.6 |
| 20260506001551 | -1 | 115 | 3.2 | 16.1 | 0.00 | 0.51 | 0.30 | 93 | 1012.8 |
| 20260506000047 | -1 | 120 | 4.8 | 14.5 | 0.00 | 0.51 | 0.30 | 93 | 1012.4 |
| 20260505234557 | 0 | 110 | 4.8 | 14.5 | 0.00 | 0.51 | 0.30 | 93 | 1012.3 |
| 20260505233103 | 0 | 123 | 6.4 | 16.1 | 0.00 | 0.51 | 0.30 | 93 | 1012.4 |
| 20260505231557 | 0 | 116 | 6.4 | 20.9 | 0.00 | 0.51 | 0.30 | 93 | 1012.0 |
| 20260505230056 | 0 | 108 | 9.7 | 16.1 | 0.00 | 0.51 | 0.30 | 92 | 1011.9 |
| 20260505224554 | 0 | 113 | 6.4 | 25.7 | 0.00 | 0.51 | 0.30 | 92 | 1012.4 |
| 20260505223101 | 0 | 101 | 4.8 | 19.3 | 0.00 | 0.51 | 0.30 | 92 | 1011.8 |
| 20260505221549 | 0 | 96 | 11.3 | 24.1 | 0.00 | 0.51 | 0.30 | 91 | 1011.4 |
| 20260505220048 | 1 | 148 | 11.3 | 19.3 | 0.03 | 0.51 | 0.30 | 91 | 1011.4 |
| 20260505214554 | 2 | 176 | 3.2 | 11.3 | 0.03 | 0.51 | 0.30 | 92 | 1011.1 |
| 20260505213048 | 2 | 229 | 4.8 | 9.7 | 0.03 | 0.51 | 0.30 | 92 | 1011.2 |
| 20260505211556 | 2 | 110 | 1.6 | 9.7 | 0.03 | 0.51 | 0.30 | 92 | 1011.1 |
| 20260505210047 | 2 | 203 | 3.2 | 6.4 | 0.03 | 0.48 | 0.28 | 91 | 1011.3 |
| 20260505204549 | 2 | 191 | 1.6 | 4.8 | 0.03 | 0.48 | 0.28 | 92 | 1011.7 |
| 20260505203049 | 2 | 205 | 1.6 | 8.0 | 0.05 | 0.48 | 0.28 | 91 | 1012.1 |
| 20260505201556 | 2 | 188 | 3.2 | 9.7 | 0.08 | 0.48 | 0.28 | 91 | 1012.5 |
| 20260505200054 | 2 | 121 | 0.0 | 4.8 | 0.05 | 0.46 | 0.25 | 92 | 1012.2 |
| 20260505194606 | 2 | 199 | 1.6 | 6.4 | 0.05 | 0.46 | 0.25 | 92 | 1012.4 |
| 20260505193054 | 2 | 200 | 3.2 | 6.4 | 0.03 | 0.43 | 0.23 | 91 | 1012.4 |
| 20260505191551 | 2 | 184 | 1.6 | 4.8 | 0.00 | 0.41 | 0.20 | 91 | 1012.4 |
| 20260505190050 | 2 | 163 | 1.6 | 6.4 | 0.03 | 0.41 | 0.20 | 92 | 1012.5 |
| 20260505184555 | 2 | 130 | 3.2 | 6.4 | 0.03 | 0.41 | 0.20 | 92 | 1012.8 |
| 20260505183052 | 2 | 129 | 1.6 | 6.4 | 0.03 | 0.41 | 0.20 | 92 | 1013.0 |
| 20260505181558 | 1 | 172 | 3.2 | 8.0 | 0.03 | 0.41 | 0.20 | 92 | 1013.2 |
| 20260505180054 | 1 | 129 | 3.2 | 8.0 | 0.00 | 0.38 | 0.18 | 92 | 1013.4 |
| 20260505174556 | 1 | 197 | 1.6 | 9.7 | 0.00 | 0.38 | 0.18 | 92 | 1013.5 |
| 20260505173048 | 1 | 132 | 3.2 | 6.4 | 0.00 | 0.38 | 0.18 | 92 | 1013.5 |
| 20260505171551 | 1 | 171 | 1.6 | 6.4 | 0.00 | 0.38 | 0.18 | 92 | 1013.7 |
| 20260505170053 | 1 | 0 | 1.6 | 6.4 | 0.00 | 0.38 | 0.18 | 93 | 1013.7 |
| 20260505164614 | 1 | 155 | 3.2 | 4.8 | 0.03 | 0.38 | 0.18 | 93 | 1013.8 |
| 20260505163053 | 1 | 131 | 1.6 | 6.4 | 0.03 | 0.38 | 0.18 | 93 | 1014.0 |
| 20260505161553 | 1 | 140 | 1.6 | 6.4 | 0.03 | 0.38 | 0.18 | 93 | 1013.9 |
| 20260505153050 | 0 | 141 | 4.8 | 8.0 | 0.03 | 0.36 | 0.15 | 93 | 1014.2 |
| 20260505151551 | 0 | 166 | 1.6 | 8.0 | 0.03 | 0.36 | 0.15 | 93 | 1014.1 |
| 20260505130107 | 0 | 117 | 9.7 | 17.7 | 0.05 | 0.30 | 0.10 | 92 | 1013.8 |
| 20260505124551 | 0 | 120 | 9.7 | 17.7 | 0.03 | 0.28 | 0.08 | 92 | 1013.4 |
| 20260505123050 | 1 | 108 | 8.0 | 17.7 | 0.03 | 0.28 | 0.08 | 92 | 1013.3 |
| 20260505121556 | 1 | 110 | 6.4 | 19.3 | 0.05 | 0.28 | 0.08 | 92 | 1013.4 |
| 20260505114547 | 1 | 133 | 9.7 | 22.5 | 0.03 | 0.25 | 0.05 | 91 | 1013.1 |
| 20260505113055 | 1 | 200 | 9.7 | 20.9 | 0.03 | 0.25 | 0.05 | 91 | 1013.0 |
| 20260505111552 | 2 | 131 | 11.3 | 25.7 | 0.00 | 0.23 | 0.03 | 90 | 1012.7 |
| 20260505110123 | 2 | 143 | 12.9 | 25.7 | 0.03 | 0.23 | 0.03 | 90 | 1012.7 |
| 20260505101603 | 3 | 130 | 22.5 | 37.0 | 0.03 | 0.23 | 0.03 | 90 | 1011.4 |
| 20260505100049 | 3 | 115 | 16.1 | 27.4 | 0.00 | 0.20 | 0.00 | 90 | 1011.4 |
| 20260505094545 | 3 | 118 | 9.7 | 24.1 | 0.00 | 0.20 | 0.00 | 90 | 1011.5 |
| 20260505093047 | 4 | 103 | 11.3 | 19.3 | 0.00 | 0.20 | 0.00 | 89 | 1011.5 |
| 20260505091546 | 4 | 119 | 8.0 | 22.5 | 0.00 | 0.20 | 0.00 | 89 | 1011.5 |
| 20260505090047 | 4 | 118 | 9.7 | 22.5 | 0.00 | 0.20 | 0.00 | 89 | 1011.2 |
| 20260505084548 | 5 | 118 | 16.1 | 25.7 | 0.00 | 0.20 | 0.00 | 87 | 1011.3 |
| 20260505083051 | 7 | 121 | 4.8 | 11.3 | 0.00 | 0.20 | 0.00 | 88 | 1011.2 |
| 20260505081552 | 7 | 120 | 1.6 | 4.8 | 0.00 | 0.20 | 0.00 | 88 | 1011.2 |
| 20260505080055 | 6 | 0 | 0.0 | 0.0 | 0.00 | 0.20 | 0.00 | 88 | 1011.3 |
| 20260505074554 | 6 | 0 | 0.0 | 0.0 | 0.00 | 0.20 | 0.00 | 87 | 1011.2 |
| 20260505073053 | 6 | 0 | 0.0 | 1.6 | 0.00 | 0.20 | 0.00 | 87 | 1011.3 |
| 20260505071552 | 7 | 120 | 1.6 | 3.2 | 0.00 | 0.20 | 0.00 | 87 | 1011.3 |
| 20260505070101 | 7 | 0 | 0.0 | 1.6 | 0.00 | 0.20 | 0.00 | 87 | 1011.6 |
| 20260505064556 | 7 | 120 | 0.0 | 1.6 | 0.00 | 0.20 | 0.00 | 86 | 1011.5 |
| 20260505063053 | 7 | 120 | 0.0 | 3.2 | 0.00 | 0.20 | 0.00 | 85 | 1011.4 |
| 20260505061556 | 7 | 120 | 0.0 | 3.2 | 0.00 | 0.20 | 0.00 | 84 | 1011.5 |
| 20260505060058 | 7 | 120 | 0.0 | 3.2 | 0.00 | 0.20 | 0.00 | 84 | 1011.6 |
| 20260505054554 | 7 | 120 | 0.0 | 3.2 | 0.00 | 0.20 | 0.20 | 83 | 1011.6 |
| 20260505053101 | 6 | 120 | 0.0 | 3.2 | 0.00 | 0.20 | 0.20 | 84 | 1011.4 |
| 20260505051549 | 6 | 120 | 0.0 | 1.6 | 0.00 | 0.20 | 0.20 | 84 | 1011.6 |
| 20260505041556 | 6 | 0 | 0.0 | 1.6 | 0.10 | 0.20 | 0.20 | 86 | 1012.1 |
| 20260505040055 | 6 | 0 | 0.0 | 4.8 | 0.15 | 0.20 | 0.20 | 86 | 1012.3 |
| 20260505034552 | 7 | 0 | 0.0 | 6.4 | 0.15 | 0.18 | 0.18 | 85 | 1012.2 |
| 20260505033052 | 7 | 68 | 3.2 | 12.9 | 0.10 | 0.13 | 0.13 | 84 | 1012.4 |
| 20260505031549 | 7 | 108 | 9.7 | 20.9 | 0.05 | 0.08 | 0.08 | 81 | 1012.2 |
| 20260505030049 | 8 | 163 | 8.0 | 12.9 | 0.03 | 0.05 | 0.05 | 75 | 1011.8 |
| 20260505024550 | 8 | 122 | 6.4 | 20.9 | 0.00 | 0.03 | 0.03 | 73 | 1011.5 |
| 20260505023056 | 9 | 116 | 8.0 | 14.5 | 0.00 | 0.03 | 0.03 | 71 | 1010.9 |
| 20260505021549 | 10 | 141 | 4.8 | 11.3 | 0.00 | 0.03 | 0.03 | 69 | 1010.7 |
| 20260505020056 | 10 | 0 | 0.0 | 0.0 | 0.00 | 0.03 | 0.03 | 68 | 1010.4 |
| 20260505014549 | 10 | 0 | 0.0 | 0.0 | 0.00 | 0.03 | 0.03 | 66 | 1010.4 |
| 20260505013051 | 10 | 0 | 0.0 | 1.6 | 0.00 | 0.03 | 0.03 | 66 | 1010.1 |
| 20260505011553 | 10 | 0 | 0.0 | 1.6 | 0.03 | 0.03 | 0.03 | 66 | 1010.2 |